This demonstration page uses our WeatherBlox Daily Observations layout. Learn more.

40.92945, -100.16068

Hourly Observations for May 12, 2016

Temp ( °F °C ) Dew Point ( °F °C ) Humidity (%) Winds ( mph kmh ) Pressure ( in mb ) Visibility ( mi km ) Precip ( " mm )
12:15 am 00:15 Clear 47 8.3 41 5 80 80 W 6 9 30.27 1025 10 16.0934 N/A
12:35 am 00:35 Clear 46 8 41 5.1 82 82 W 6 9 30.27 1025 10 16.0934 N/A
12:55 am 00:55 Clear 46 7.6 41 4.9 83 83 NW 3 6 30.27 1025 10 16.0934 N/A
1:15 am 01:15 Clear 45 7.2 40 4.7 84 84 NNW 5 7 30.27 1025 10 16.0934 N/A
1:35 am 01:35 Clear 44 6.7 40 4.5 86 86 NW 5 7 30.27 1025 10 16.0934 N/A
1:55 am 01:55 Clear 44 6.4 39 4 85 85 WNW 7 11 30.27 1025 10 16.0934 N/A
2:15 am 02:15 Clear 43 6.2 39 4 86 86 WNW 8 13 30.27 1025 10 16.0934 N/A
2:35 am 02:35 Clear 42 5.7 38 3.5 86 86 NW 7 11 30.27 1025 10 16.0934 N/A
2:55 am 02:55 Clear 42 5.5 38 3.2 85 85 NW 8 13 30.3 1026 10 16.0934 N/A
3:15 am 03:15 Clear 42 5.6 38 3.1 84 84 WNW 7 11 30.3 1026 10 16.0934 N/A
3:35 am 03:35 Clear 41 5.2 37 2.8 85 85 W 6 9 30.3 1026 10 16.0934 N/A
3:55 am 03:55 Clear 40 4.7 37 2.5 86 86 WNW 7 11 30.3 1026 10 16.0934 N/A
4:15 am 04:15 Clear 40 4.5 37 2.5 87 87 WNW 7 11 30.3 1026 10 16.0934 N/A
4:35 am 04:35 Clear 40 4.7 37 2.6 86 86 WNW 8 13 30.3 1026 10 16.0934 N/A
4:55 am 04:55 Clear 40 4.7 37 2.5 86 86 WNW 6 9 30.3 1026 10 16.0934 N/A
5:15 am 05:15 Clear 40 4.7 37 2.5 86 86 WNW 7 11 30.3 1026 10 16.0934 N/A
5:35 am 05:35 Clear 40 4.5 36 2.2 85 85 WNW 8 13 30.3 1026 10 16.0934 N/A
5:55 am 05:55 Clear 39 4 36 2 87 87 WNW 7 11 30.3 1026 10 16.0934 N/A
6:15 am 06:15 Clear 39 4 36 2 87 87 WNW 8 13 30.3 1026 10 16.0934 N/A
6:35 am 06:35 Sunny 39 3.7 35 1.8 88 88 WNW 6 9 30.3 1026 10 16.0934 N/A
6:55 am 06:55 Sunny 39 3.7 36 2 89 89 WNW 5 7 30.3 1026 10 16.0934 N/A
7:15 am 07:15 Sunny 40 4.4 37 2.5 88 88 W 6 9 30.3 1026 10 16.0934 N/A
7:35 am 07:35 Sunny 42 5.5 37 3 84 84 WNW 8 13 30.3 1026 10 16.0934 N/A
7:55 am 07:55 Hazy 44 6.6 38 3.4 80 80 WNW 8 13 30.27 1025 5 8.0467 N/A
8:15 am 08:15 Sunny 46 7.5 38 3.2 74 74 WNW 9 15 30.3 1026 10 16.0934 N/A
8:35 am 08:35 Sunny 47 8.3 39 3.9 74 74 WNW 9 15 30.3 1026 10 16.0934 N/A
8:55 am 08:55 Sunny 49 9.2 39 4.1 71 71 NW 13 20 30.27 1025 10 16.0934 N/A
9:15 am 09:15 Sunny 51 10.5 41 5 69 69 NW 9 15 30.27 1025 10 16.0934 N/A
9:35 am 09:35 Sunny 53 11.4 41 5 65 65 WNW 10 17 30.27 1025 10 16.0934 N/A
9:55 am 09:55 Sunny 55 12.7 42 5.5 62 62 WNW 10 17 30.24 1024 10 16.0934 N/A
10:15 am 10:15 Sunny 57 13.8 42 5.6 58 58 WNW 14 22 30.24 1024 10 16.0934 N/A
10:35 am 10:35 Sunny 59 14.9 40 4.7 51 51 WNW 14 22 30.24 1024 10 16.0934 N/A
10:55 am 10:55 Sunny 61 15.9 40 4.3 46 46 WNW 16 26 30.21 1023 10 16.0934 N/A
11:15 am 11:15 Sunny 61 16.2 37 2.9 41 41 WNW 15 24 30.21 1023 10 16.0934 N/A
11:35 am 11:35 Sunny 62 16.8 37 3 40 40 NW 14 22 30.21 1023 10 16.0934 N/A
11:55 am 11:55 Sunny 63 17.3 37 2.9 38 38 WNW 14 22 30.21 1023 10 16.0934 N/A
12:15 pm 12:15 Sunny 64 17.5 37 2.6 37 37 W 13 20 30.21 1023 10 16.0934 N/A
12:35 pm 12:35 Sunny 64 17.7 37 2.7 37 37 W 9 15 30.21 1023 10 16.0934 N/A
12:55 pm 12:55 Sunny 64 18 38 3.2 37 37 W 12 19 30.18 1022 10 16.0934 N/A
1:15 pm 13:15 Sunny 65 18.3 37 2.9 36 36 WNW 13 20 30.18 1022 10 16.0934 N/A
1:35 pm 13:35 Sunny 65 18.6 38 3.5 37 37 W 14 22 30.15 1021 10 16.0934 N/A
1:55 pm 13:55 Sunny 66 19.1 38 3.3 35 35 NW 13 20 30.15 1021 10 16.0934 N/A
2:15 pm 14:15 Sunny 67 19.5 38 3.1 34 34 W 16 26 30.15 1021 10 16.0934 N/A
2:35 pm 14:35 Sunny 68 20 38 3.1 33 33 WNW 17 28 30.12 1020 10 16.0934 N/A
2:55 pm 14:55 Sunny 68 19.8 35 1.5 30 30 W 6 9 30.12 1020 10 16.0934 N/A
3:15 pm 15:15 Sunny 68 20.2 37 3 32 32 W 14 22 30.12 1020 10 16.0934 N/A
3:35 pm 15:35 Sunny 69 20.3 38 3.2 32 32 NW 9 15 30.12 1020 10 16.0934 N/A
3:55 pm 15:55 Sunny 70 21 37 2.8 30 30 W 6 9 30.09 1019 10 16.0934 N/A
4:15 pm 16:15 Partly Cloudy 70 21 37 2.8 30 30 WSW 12 19 30.09 1019 10 16.0934 N/A
4:35 pm 16:35 Sunny 70 21 36 2.4 29 29 W 8 13 30.09 1019 10 16.0934 N/A
4:55 pm 16:55 Sunny 70 21 38 3.1 31 31 W 13 20 30.09 1019 10 16.0934 N/A
5:15 pm 17:15 Sunny 70 21 36 2.2 29 29 W 8 13 30.09 1019 10 16.0934 N/A
5:35 pm 17:35 Sunny 70 21.3 38 3.2 30 30 W 12 19 30.03 1017 10 16.0934 N/A
5:55 pm 17:55 Sunny 70 21.2 36 2.4 29 29 W 9 15 30.03 1017 10 16.0934 N/A
6:15 pm 18:15 Sunny 70 21 36 2.3 29 29 W 10 17 30.06 1018 10 16.0934 N/A
6:35 pm 18:35 Sunny 70 21.2 37 2.6 29 29 W 14 22 30.03 1017 10 16.0934 N/A
6:55 pm 18:55 Sunny 70 21 37 2.7 30 30 W 7 11 30.06 1018 10 16.0934 N/A
7:15 pm 19:15 Sunny 69 20.7 36 2.2 29 29 W 9 15 30.06 1018 10 16.0934 N/A
7:35 pm 19:35 Sunny 68 20.1 39 4.1 35 35 WSW 6 9 30.03 1017 10 16.0934 N/A
7:55 pm 19:55 Sunny 67 19.5 40 4.7 38 38 WSW 5 7 30.03 1017 10 16.0934 N/A
8:15 pm 20:15 Sunny 66 18.9 41 5.1 40 40 SW 5 7 30.03 1017 10 16.0934 N/A
8:35 pm 20:35 Sunny 65 18.5 42 5.4 42 42 S 5 7 30.03 1017 10 16.0934 N/A
8:55 pm 20:55 Clear 64 17.8 41 5 43 43 S 5 7 30.03 1017 10 16.0934 N/A
9:15 pm 21:15 Clear 62 16.6 42 5.3 47 47 S 5 7 30.06 1018 10 16.0934 N/A
9:35 pm 21:35 Clear 60 15.5 43 6.1 54 54 S 5 7 30.06 1018 10 16.0934 N/A
9:55 pm 21:55 Clear 58 14.7 44 6.4 58 58 S 5 7 30.06 1018 10 16.0934 N/A
10:15 pm 22:15 Clear 56 13.5 44 6.5 63 63 S 5 7 30.09 1019 10 16.0934 N/A
10:35 pm 22:35 Clear 55 12.5 44 6.8 68 68 S 3 6 30.09 1019 10 16.0934 N/A
10:55 pm 22:55 Clear 53 11.5 44 6.5 72 72 S 5 7 30.09 1019 10 16.0934 N/A
11:15 pm 23:15 Clear 55 12.6 44 6.7 68 68 S 5 7 30.09 1019 10 16.0934 N/A
11:35 pm 23:35 Clear 55 13 43 6.1 63 63 S 5 7 30.09 1019 10 16.0934 N/A
11:55 pm 23:55 Clear 55 12.7 43 6 64 64 SSE 5 7 30.09 1019 10 16.0934 N/A

Powered by AerisWeather